STARLINK-37464, 69266

Orbit data source: Space-Track

STARLINK-37464, 69266 is a payload satellite owned by SpaceX/Seattle (US) in LEO that was launched on Fri, 29 May 2026 UTC via an FALCON 9 launch vehicle from the Air Force Eastern Test Range (AFETR). Payload-class satellites include a variety of spacecraft equipped with specific instruments for various scientific and technological missions. These include communications satellites like Starlink; space stations such as the ISS; scientific satellites like the Hubble; Earth observation satellites from companies like Planet Labs, Umbra, and HawkEye 360; GPS; miniature CubeSats for education and research; and military/defense satellites.

Loading next visibility...
Identifier
69266, 2026-117AE
Orbit
LEO
Country
Flag of USUS
Related business
Manufacturer
SpaceX/Seattle
Mission
Operational spacecraft
Bus & Motor
STARLINK V2MO, Unknown motor
Mass
575 kg wet, ~530 kg dry
Launch date (UTC)
2026-05-29 (3 weeks ago)
Launch vehicle
FALCON 9
Launch site
Air Force Eastern Test Range (AFETR)
Object type
Payload
Rocket body
Debris
Shape & HBR
Unknown
Radar Cross Section
Large (>1 m²)

Expand to show TLE details & history
Last TLE update: 9 hours ago

TLE from 9 hours ago
0 STARLINK-37464
1 69266U 26117AE  26168.68408059  .00104186  00000-0  49785-3 0  9995
2 69266  53.1569 240.3341 0000854  71.4665 288.6451 15.82023769  3069
Epoch: 2026-06-17T16:25Z
TLE epoch observation values (Epoch: 2026-06-17T16:25:04.562Z)
Latitude
-0.00004°
Longitude
88.12683°
Altitude
325.455 km
Speed
7.714 km/s
True Right ascension
16h 01m 20s
True Declination
0° 00' 00"
Sunlit
Object was in full shadow at epoch
Visualization orbit readout
Latitude
Unknown
Longitude
Unknown
Altitude
Unknown
Speed
Unknown
Apparent Right ascension
Unknown
Apparent Declination
Unknown
Sunlit
N/A
Visualization observer readout
Local Sidereal Time
12:38:16
Azimuth
Unknown
Elevation
Unknown
Doppler factor
Unknown
Orbital elements
Apogee altitude
325.553 km
Perigee altitude
324.408 km
Semi-major axis
6,703.118 km
Eccentricity
0.00009
Inclination
53.1569°
RAAN
240.3341°
Arg. of periapsis
71.4665°
True anomaly
288.63583°
Mean anomaly
288.6451°
Eccentric anomaly
288.64046°
Mean motion
3.95483 °/min
Orbital period
91.03 mins
BSTAR
0.00049785
Loading maneuver chart data...
Computing Atmospheric mass density...
Loading historical data...
Loading historical data...
Loading historical data...
Loading historical data...
Loading historical data...
Loading historical data...
Loading historical data...

Documentation

Showing up to 5 results
|